KLM31A EHAM-EGLL

Flight info

Callsign KLM31A
Flight time 0h 45m
Altitude 24000
Route IDRID L980 LOGAN
Aircraft B739/M-SDE2E3FGHIRWXY/LB1

Departure

Time 2026-05-07 17:20
Airport Amsterdam Airport Schiphol (EHAM)

Arrival

Time 2026-05-07 18:06
Airport London Heathrow Airport (EGLL)
Time Latitude Longitude Altitude Speed Heading
2026-05-07 16:56 52.31003 4.77118 -2 ft 0 kts 183°
2026-05-07 17:05 52.31004 4.77118 -2 ft 2 kts 183°
2026-05-07 17:05 52.31029 4.77116 -2 ft 4 kts 168°
2026-05-07 17:05 52.31055 4.77107 -2 ft 4 kts 176°
2026-05-07 17:06 52.31072 4.77113 -2 ft 2 kts 237°
2026-05-07 17:06 52.31079 4.77146 -2 ft 2 kts 257°
2026-05-07 17:06 52.31079 4.77148 -2 ft 1 kts 257°
2026-05-07 17:11 52.31079 4.77147 -2 ft 0 kts 258°
2026-05-07 17:11 52.31079 4.77117 -2 ft 6 kts 272°
2026-05-07 17:11 52.31083 4.77010 -2 ft 12 kts 275°
2026-05-07 17:11 52.31141 4.76937 -2 ft 11 kts
2026-05-07 17:12 52.31208 4.77001 -2 ft 11 kts 34°
2026-05-07 17:12 52.31272 4.77072 -2 ft 12 kts 34°
2026-05-07 17:12 52.31349 4.77156 -2 ft 16 kts 33°
2026-05-07 17:12 52.31474 4.77199 -2 ft 21 kts
2026-05-07 17:13 52.31571 4.77091 -2 ft 20 kts 262°
2026-05-07 17:13 52.31560 4.76864 -2 ft 20 kts 266°
2026-05-07 17:13 52.31553 4.76648 -2 ft 19 kts 266°
2026-05-07 17:13 52.31546 4.76436 -2 ft 18 kts 267°
2026-05-07 17:14 52.31538 4.76230 -2 ft 18 kts 267°
2026-05-07 17:14 52.31531 4.76022 -2 ft 18 kts 266°
2026-05-07 17:14 52.31524 4.75819 -2 ft 18 kts 267°
2026-05-07 17:14 52.31518 4.75621 -2 ft 18 kts 266°
2026-05-07 17:15 52.31509 4.75382 -2 ft 25 kts 267°
2026-05-07 17:15 52.31499 4.75072 -2 ft 29 kts 267°
2026-05-07 17:15 52.31488 4.74751 -2 ft 27 kts 267°
2026-05-07 17:15 52.31478 4.74450 -2 ft 26 kts 266°
2026-05-07 17:16 52.31443 4.74182 -2 ft 24 kts 225°
2026-05-07 17:16 52.31288 4.74130 -2 ft 23 kts 183°
2026-05-07 17:16 52.31133 4.74116 -2 ft 22 kts 183°
2026-05-07 17:16 52.30982 4.74101 -2 ft 21 kts 183°
2026-05-07 17:17 52.30835 4.74088 -2 ft 21 kts 183°
2026-05-07 17:17 52.30692 4.74075 -2 ft 20 kts 183°
2026-05-07 17:17 52.30554 4.74063 -2 ft 20 kts 183°
2026-05-07 17:17 52.30430 4.74040 -2 ft 12 kts 208°
2026-05-07 17:18 52.30403 4.73926 -2 ft 11 kts 271°
2026-05-07 17:18 52.30414 4.73800 -4 ft 12 kts 302°
2026-05-07 17:18 52.30478 4.73764 -3 ft 0 kts
2026-05-07 17:19 52.30555 4.73771 -4 ft 41 kts
2026-05-07 17:19 52.31093 4.73821 -2 ft 112 kts
2026-05-07 17:20 52.32055 4.73895 104 ft 154 kts
2026-05-07 17:20 52.33128 4.73986 903 ft 152 kts
2026-05-07 17:20 52.34182 4.73551 1615 ft 162 kts 342°
2026-05-07 17:20 52.35267 4.72844 2049 ft 181 kts 343°
2026-05-07 17:21 52.36517 4.72057 2290 ft 206 kts 337°
2026-05-07 17:21 52.37630 4.70366 2517 ft 234 kts 302°
2026-05-07 17:21 52.38067 4.67731 2996 ft 247 kts 276°
2026-05-07 17:21 52.38096 4.64839 3413 ft 264 kts 264°
2026-05-07 17:22 52.37445 4.61988 4063 ft 273 kts 240°
2026-05-07 17:22 52.36449 4.59314 4880 ft 276 kts 238°
2026-05-07 17:22 52.35446 4.56683 5855 ft 272 kts 238°
2026-05-07 17:22 52.34446 4.54032 6652 ft 275 kts 238°
2026-05-07 17:23 52.33448 4.51341 7421 ft 277 kts 239°
2026-05-07 17:23 52.32457 4.48632 8176 ft 280 kts 239°
2026-05-07 17:23 52.31461 4.45881 8962 ft 282 kts 240°
2026-05-07 17:23 52.30468 4.43116 9734 ft 284 kts 241°
2026-05-07 17:24 52.29464 4.40307 10424 ft 289 kts 241°
2026-05-07 17:24 52.28415 4.37363 10617 ft 311 kts 241°
2026-05-07 17:24 52.27290 4.34196 10793 ft 333 kts 240°
2026-05-07 17:24 52.26103 4.30854 11097 ft 347 kts 240°
2026-05-07 17:25 52.24878 4.27408 11695 ft 352 kts 240°
2026-05-07 17:25 52.23647 4.23952 12433 ft 354 kts 240°
2026-05-07 17:25 52.22450 4.20589 13144 ft 356 kts 240°
2026-05-07 17:25 52.21204 4.17092 13919 ft 358 kts 240°
2026-05-07 17:26 52.19948 4.13571 14595 ft 360 kts 241°
2026-05-07 17:26 52.18672 4.09999 15265 ft 364 kts 240°
2026-05-07 17:26 52.17403 4.06448 15894 ft 367 kts 240°
2026-05-07 17:26 52.16114 4.02852 16619 ft 369 kts 240°
2026-05-07 17:27 52.14810 3.99214 17247 ft 373 kts 240°
2026-05-07 17:27 52.13499 3.95565 17986 ft 375 kts 240°
2026-05-07 17:27 52.12173 3.91880 18529 ft 380 kts 240°
2026-05-07 17:27 52.10837 3.88171 19163 ft 381 kts 240°
2026-05-07 17:28 52.09490 3.84436 19692 ft 385 kts 240°
2026-05-07 17:28 52.08131 3.80674 20302 ft 386 kts 240°
2026-05-07 17:28 52.06768 3.76905 20923 ft 388 kts 240°
2026-05-07 17:28 52.05388 3.73097 21357 ft 394 kts 240°
2026-05-07 17:29 52.03991 3.69247 21912 ft 396 kts 240°
2026-05-07 17:29 52.02584 3.65376 22501 ft 399 kts 240°
2026-05-07 17:29 52.01171 3.61495 23150 ft 398 kts 240°
2026-05-07 17:29 51.99767 3.57642 23822 ft 396 kts 239°
2026-05-07 17:30 51.98364 3.53799 24070 ft 395 kts 239°
2026-05-07 17:30 51.96956 3.49949 24071 ft 398 kts 239°
2026-05-07 17:30 51.95546 3.46099 24083 ft 395 kts 239°
2026-05-07 17:30 51.94141 3.42265 24098 ft 396 kts 239°
2026-05-07 17:31 51.92731 3.38426 24090 ft 398 kts 239°
2026-05-07 17:31 51.91313 3.34570 24094 ft 399 kts 239°
2026-05-07 17:31 51.89893 3.30712 24089 ft 399 kts 239°
2026-05-07 17:31 51.88472 3.26857 24088 ft 398 kts 239°
2026-05-07 17:32 51.87049 3.23007 24084 ft 398 kts 239°
2026-05-07 17:32 51.85758 3.19061 24077 ft 397 kts 247°
2026-05-07 17:32 51.84865 3.14861 24090 ft 396 kts 255°
2026-05-07 17:32 51.84494 3.11975 24081 ft 396 kts 262°
2026-05-07 17:33 51.84104 3.06066 24084 ft 395 kts 264°
2026-05-07 17:33 51.83849 3.01639 24082 ft 395 kts 264°
2026-05-07 17:33 51.83589 2.97213 24082 ft 396 kts 264°
2026-05-07 17:33 51.83318 2.92787 24085 ft 396 kts 263°
2026-05-07 17:34 51.83132 2.89851 24077 ft 396 kts 263°
2026-05-07 17:34 51.82846 2.85421 24081 ft 396 kts 263°
2026-05-07 17:34 51.82554 2.80990 24080 ft 397 kts 263°
2026-05-07 17:34 51.82260 2.76554 24081 ft 397 kts 263°
2026-05-07 17:35 51.81868 2.70682 24079 ft 397 kts 263°
2026-05-07 17:35 51.81569 2.66243 24077 ft 397 kts 263°
2026-05-07 17:35 51.81365 2.63240 24078 ft 398 kts 263°
2026-05-07 17:35 51.80960 2.57362 24082 ft 398 kts 263°
2026-05-07 17:36 51.80753 2.54368 24079 ft 398 kts 263°
2026-05-07 17:36 51.80444 2.49927 24075 ft 398 kts 263°
2026-05-07 17:36 51.80134 2.45485 24075 ft 398 kts 263°
2026-05-07 17:36 51.79823 2.41039 24072 ft 398 kts 263°
2026-05-07 17:37 51.79510 2.36599 24073 ft 398 kts 263°
2026-05-07 17:37 51.79197 2.32161 24078 ft 398 kts 263°
2026-05-07 17:37 51.78882 2.27723 24082 ft 398 kts 263°
2026-05-07 17:37 51.78568 2.23347 24073 ft 398 kts 263°
2026-05-07 17:38 51.78266 2.18849 24074 ft 398 kts 264°
2026-05-07 17:38 51.78003 2.14416 24079 ft 397 kts 264°
2026-05-07 17:38 51.77750 2.09963 24071 ft 397 kts 264°
2026-05-07 17:38 51.77497 2.05531 24076 ft 397 kts 264°
2026-05-07 17:39 51.77240 2.01091 24079 ft 397 kts 264°
2026-05-07 17:39 51.76978 1.96653 24072 ft 397 kts 264°
2026-05-07 17:39 51.76717 1.92276 24073 ft 397 kts 264°
2026-05-07 17:39 51.76448 1.87842 24081 ft 397 kts 264°
2026-05-07 17:40 51.76178 1.83409 24071 ft 397 kts 264°
2026-05-07 17:40 51.75906 1.78977 24070 ft 397 kts 264°
2026-05-07 17:40 51.75636 1.74588 24058 ft 387 kts 264°
2026-05-07 17:40 51.75373 1.70344 24056 ft 374 kts 264°
2026-05-07 17:41 51.75114 1.66187 24065 ft 371 kts 264°
2026-05-07 17:41 51.74854 1.62051 24074 ft 371 kts 264°
2026-05-07 17:41 51.74589 1.57885 23639 ft 378 kts 263°
2026-05-07 17:41 51.74318 1.53688 23116 ft 376 kts 263°
2026-05-07 17:42 51.74047 1.49510 22569 ft 373 kts 263°
2026-05-07 17:42 51.73778 1.45380 22083 ft 368 kts 263°
2026-05-07 17:42 51.73511 1.41298 21598 ft 364 kts 263°
2026-05-07 17:42 51.73245 1.37261 21113 ft 360 kts 263°
2026-05-07 17:43 51.72981 1.33257 20636 ft 357 kts 263°
2026-05-07 17:43 51.72717 1.29291 20164 ft 354 kts 263°
2026-05-07 17:43 51.72455 1.25368 19705 ft 351 kts 263°
2026-05-07 17:43 51.72195 1.21480 19250 ft 349 kts 263°
2026-05-07 17:44 51.71933 1.17599 18796 ft 346 kts 263°
2026-05-07 17:44 51.71673 1.13750 18338 ft 344 kts 263°
2026-05-07 17:44 51.71412 1.09921 17828 ft 342 kts 263°
2026-05-07 17:44 51.71153 1.06125 17349 ft 340 kts 263°
2026-05-07 17:45 51.70895 1.02357 16890 ft 337 kts 263°
2026-05-07 17:45 51.70637 0.98624 16447 ft 334 kts 263°
2026-05-07 17:45 51.70380 0.94920 16005 ft 331 kts 263°
2026-05-07 17:45 51.70125 0.91248 15599 ft 328 kts 263°
2026-05-07 17:46 51.69872 0.87606 15205 ft 325 kts 262°
2026-05-07 17:46 51.69621 0.84004 14808 ft 323 kts 262°
2026-05-07 17:46 51.69370 0.80419 14418 ft 322 kts 262°
2026-05-07 17:46 51.69119 0.76837 14032 ft 321 kts 262°
2026-05-07 17:47 51.68872 0.73347 13613 ft 321 kts 262°
2026-05-07 17:47 51.68618 0.69772 13185 ft 321 kts 262°
2026-05-07 17:47 51.68363 0.66201 12768 ft 320 kts 262°
2026-05-07 17:47 51.68108 0.62641 12375 ft 320 kts 262°
2026-05-07 17:48 51.67852 0.59087 11981 ft 319 kts 262°
2026-05-07 17:48 51.67596 0.55537 11580 ft 318 kts 262°
2026-05-07 17:48 51.67342 0.52024 11193 ft 314 kts 262°
2026-05-07 17:48 51.67088 0.48543 10801 ft 311 kts 262°
2026-05-07 17:49 51.66835 0.45091 10420 ft 308 kts 262°
2026-05-07 17:49 51.66584 0.41678 10044 ft 305 kts 262°
2026-05-07 17:49 51.66342 0.38403 10003 ft 291 kts 262°
2026-05-07 17:49 51.66106 0.35207 9967 ft 276 kts 262°
2026-05-07 17:50 51.65885 0.32221 9729 ft 270 kts 262°
2026-05-07 17:50 51.65661 0.29239 9442 ft 266 kts 262°
2026-05-07 17:50 51.65438 0.26247 9090 ft 265 kts 262°
2026-05-07 17:50 51.65216 0.23297 8697 ft 266 kts 262°
2026-05-07 17:51 51.64994 0.20353 8243 ft 270 kts 262°
2026-05-07 17:51 51.64769 0.17384 8098 ft 265 kts 262°
2026-05-07 17:51 51.64544 0.14449 8051 ft 263 kts 261°
2026-05-07 17:51 51.64297 0.11513 8060 ft 268 kts 261°
2026-05-07 17:52 51.64037 0.08515 8054 ft 272 kts 261°
2026-05-07 17:52 51.63770 0.05480 8056 ft 275 kts 261°
2026-05-07 17:52 51.63502 0.02441 8052 ft 274 kts 261°
2026-05-07 17:52 51.63244 -0.00476 8033 ft 273 kts 261°
2026-05-07 17:53 51.62983 -0.03475 8035 ft 270 kts 261°
2026-05-07 17:53 51.62725 -0.06462 8040 ft 269 kts 261°
2026-05-07 17:53 51.62468 -0.09455 8049 ft 272 kts 261°
2026-05-07 17:53 51.62206 -0.12485 8052 ft 275 kts 261°
2026-05-07 17:54 51.61940 -0.15543 8061 ft 277 kts 261°
2026-05-07 17:54 51.61673 -0.18614 7878 ft 278 kts 261°
2026-05-07 17:54 51.61405 -0.21671 7598 ft 274 kts 261°
2026-05-07 17:54 51.61138 -0.24675 7340 ft 270 kts 261°
2026-05-07 17:55 51.60866 -0.27662 7068 ft 268 kts 261°
2026-05-07 17:55 51.60595 -0.30597 7053 ft 262 kts 261°
2026-05-07 17:55 51.60323 -0.33525 7071 ft 269 kts 261°
2026-05-07 17:55 51.60043 -0.36529 7057 ft 274 kts 261°
2026-05-07 17:56 51.59760 -0.39549 7046 ft 273 kts 261°
2026-05-07 17:56 51.59476 -0.42567 7041 ft 272 kts 261°
2026-05-07 17:56 51.59192 -0.45574 7039 ft 271 kts 261°
2026-05-07 17:56 51.58909 -0.48564 7041 ft 271 kts 261°
2026-05-07 17:57 51.58626 -0.51555 7045 ft 270 kts 261°
2026-05-07 17:57 51.58438 -0.53541 7043 ft 271 kts 261°
2026-05-07 17:57 51.58060 -0.57538 7002 ft 270 kts 261°
2026-05-07 17:57 51.57778 -0.60497 6760 ft 268 kts 261°
2026-05-07 17:58 51.57491 -0.63475 6328 ft 271 kts 261°
2026-05-07 17:58 51.57197 -0.66472 5960 ft 271 kts 261°
2026-05-07 17:58 51.56903 -0.69448 5646 ft 268 kts 261°
2026-05-07 17:58 51.56613 -0.72400 5310 ft 267 kts 261°
2026-05-07 17:59 51.56324 -0.75336 5106 ft 261 kts 261°
2026-05-07 17:59 51.56052 -0.78122 4979 ft 244 kts 261°
2026-05-07 17:59 51.55775 -0.80690 4869 ft 224 kts 253°
2026-05-07 17:59 51.54989 -0.82674 4709 ft 203 kts 217°
2026-05-07 18:00 51.53753 -0.83453 4451 ft 188 kts 185°
2026-05-07 18:00 51.52447 -0.83511 3989 ft 188 kts 172°
2026-05-07 18:00 51.51290 -0.82625 3582 ft 186 kts 139°
2026-05-07 18:00 51.50356 -0.81214 3234 ft 184 kts 136°
2026-05-07 18:01 51.49445 -0.79781 3025 ft 183 kts 136°
2026-05-07 18:01 51.48521 -0.78312 3006 ft 189 kts 135°
2026-05-07 18:01 51.47919 -0.76527 2978 ft 186 kts 96°
2026-05-07 18:01 51.47841 -0.74433 2985 ft 187 kts 96°
2026-05-07 18:02 51.47712 -0.70251 2735 ft 193 kts 92°
2026-05-07 18:02 51.47704 -0.68113 2474 ft 190 kts 92°
2026-05-07 18:02 51.47704 -0.66023 2228 ft 185 kts 91°
2026-05-07 18:03 51.47707 -0.63963 1997 ft 185 kts 91°
2026-05-07 18:03 51.47712 -0.61894 1738 ft 186 kts 91°
2026-05-07 18:03 51.47716 -0.59825 1502 ft 185 kts 91°
2026-05-07 18:03 51.47722 -0.57780 1240 ft 180 kts 91°
2026-05-07 18:04 51.47728 -0.55838 1028 ft 167 kts 91°
2026-05-07 18:04 51.47733 -0.54084 808 ft 150 kts 92°
2026-05-07 18:04 51.47742 -0.52453 617 ft 144 kts 91°
2026-05-07 18:04 51.47746 -0.50865 418 ft 140 kts 93°
2026-05-07 18:05 51.47749 -0.49302 207 ft 140 kts 92°
2026-05-07 18:05 51.47757 -0.47758 89 ft 135 kts 92°
2026-05-07 18:05 51.47757 -0.46445 89 ft 91 kts 89°
2026-05-07 18:05 51.47759 -0.45694 85 ft 53 kts 89°
2026-05-07 18:06 51.47663 -0.45469 85 ft 17 kts 179°
2026-05-07 18:06 51.47629 -0.45470 86 ft 0 kts 180°
2026-05-07 18:06 51.47623 -0.45470 86 ft 2 kts 180°
2026-05-07 18:06 51.47585 -0.45470 86 ft 8 kts 180°
2026-05-07 18:07 51.47525 -0.45454 86 ft 9 kts 145°
2026-05-07 18:07 51.47508 -0.45358 89 ft 10 kts 90°
2026-05-07 18:07 51.47508 -0.45230 90 ft 15 kts 90°
2026-05-07 18:07 51.47509 -0.45048 90 ft 17 kts 90°
2026-05-07 18:08 51.47510 -0.44867 90 ft 16 kts 89°
2026-05-07 18:08 51.47511 -0.44682 87 ft 17 kts 90°
2026-05-07 18:08 51.47439 -0.44558 87 ft 17 kts 180°
2026-05-07 18:08 51.47325 -0.44561 86 ft 16 kts 180°
2026-05-07 18:09 51.47216 -0.44561 86 ft 15 kts 179°
2026-05-07 18:09 51.47111 -0.44560 86 ft 15 kts 179°
2026-05-07 18:09 51.47010 -0.44558 86 ft 14 kts 179°
2026-05-07 18:09 51.46914 -0.44557 86 ft 14 kts 179°
2026-05-07 18:10 51.46821 -0.44556 86 ft 14 kts 179°
2026-05-07 18:10 51.46709 -0.44559 86 ft 17 kts 187°
2026-05-07 18:10 51.46640 -0.44680 86 ft 0 kts 223°
2026-05-07 18:13 51.46639 -0.44682 86 ft 1 kts 224°
2026-05-07 18:13 51.46604 -0.44734 89 ft 14 kts 223°
2026-05-07 18:14 51.46526 -0.44844 88 ft 15 kts 221°
2026-05-07 18:14 51.46449 -0.44954 87 ft 15 kts 222°
2026-05-07 18:14 51.46364 -0.45074 86 ft 17 kts 221°
2026-05-07 18:14 51.46353 -0.45090 87 ft 2 kts 221°
2026-05-07 18:15 51.46341 -0.45107 86 ft 3 kts 222°
2026-05-07 18:15 51.46308 -0.45155 86 ft 11 kts 223°
2026-05-07 18:15 51.46233 -0.45264 85 ft 17 kts 221°
2026-05-07 18:15 51.46139 -0.45380 86 ft 17 kts 191°
2026-05-07 18:16 51.46046 -0.45326 85 ft 14 kts 173°
2026-05-07 18:16 51.45945 -0.45328 85 ft 15 kts 181°
2026-05-07 18:16 51.45829 -0.45333 85 ft 18 kts 181°
2026-05-07 18:16 51.45714 -0.45287 87 ft 17 kts 139°
2026-05-07 18:17 51.45672 -0.45116 85 ft 17 kts 86°
2026-05-07 18:17 51.45708 -0.44915 90 ft 20 kts 60°
2026-05-07 18:17 51.45748 -0.44813 85 ft 5 kts 30°
2026-05-07 18:17 51.45786 -0.44837 88 ft 7 kts 330°
2026-05-07 18:18 51.45808 -0.44857 89 ft 2 kts 330°
2026-05-07 18:18 51.45822 -0.44869 86 ft 0 kts 330°
2026-05-07 18:18 51.45821 -0.44868 86 ft 0 kts 330°